Regional Weather Roundup
Issued by NWS

Home | Current Version | Previous Version | Graphics & Text | Print | Product List | Glossary On
Versions: 1 2 3 4 5 6 7 8 9 10 11 12 13 14 15 16 17 18 19 20 21 22 23 24 25 26 27 28 29 30 31 32 33 34 35 36 37 38 39 40 41 42 43 44 45 46 47 48 49 50
000
ASUS44 KMEG 260100
RWRTN
TENNESSEE HOURLY STATE WEATHER ROUNDUP
NATIONAL WEATHER SERVICE MEMPHIS TN
700 PM CST SUN JAN 25 2015

TNZ002-004-019-021-049-052-054-088>092-260200-
WEST TENNESSEE

CITY           SKY/WX    TMP DP  RH WIND       PRES   REMARKS
MEMPHIS INTL   CLOUDY    47  36  65 NW22G30   29.85R
NWS MEMPHIS      N/A     46 N/A N/A MISG        N/A
JACKSON        CLOUDY    47  39  74 W13       29.78R
DYERSBURG      CLOUDY    45  30  57 W12G21    29.81R
UNION CITY     CLOUDY    43  43 100 W7        29.75R
PARIS          CLOUDY    43  39  87 W9        29.73R
LEXINGTON      CLOUDY    43  41  93 SW7       29.74S
SAVANNAH       PTCLDY    43  43 100 CALM      29.78R
$$

TNZ008-025-027-028-033-062-065-066-260200-
NORTH MIDDLE TENNESSEE

CITY           SKY/WX    TMP DP  RH WIND       PRES   REMARKS
NASHVILLE      CLOUDY    47  42  83 W8        29.71R
CLARKSVILLE    RAIN      43  40  89 W9        29.70R FOG
COOKEVILLE     MOCLDY    45  43  93 W12       29.69R
CROSSVILLE     CLOUDY    46  36  68 S6        29.69S
$$

TNZ061-075-076-078-094-096-097-260200-
SOUTH MIDDLE TENNESSEE

CITY           SKY/WX    TMP DP  RH WIND       PRES   REMARKS
FAYETTEVILLE     N/A     46  37  71 MISG      29.72R
TULLAHOMA      MOCLDY    43  37  81 W6        29.72R
WINCHESTER     PTCLDY    45  39  81 CALM      29.72R
SHELBYVILLE    PTCLDY    45  45 100 W3        29.74R
$$

TNZ017-018-042-046-047-260200-
NORTHEAST TENNESSEE

CITY           SKY/WX    TMP DP  RH WIND       PRES   REMARKS
TRI CITIES     CLOUDY    46  34  62 CALM      29.72S
ELIZABETHTON   CLOUDY    43  36  75 CALM      29.72S
$$

TNZ012-013-036-069-073-074-260200-
CENTRAL EAST TENNESSEE

CITY           SKY/WX    TMP DP  RH WIND       PRES   REMARKS
KNOXVILLE      CLOUDY    49  36  61 S9        29.72R
OAK RIDGE      CLOUDY    52  34  50 S10G17    29.73R
GATLINBURG     MOCLDY    48  34  57 S6        29.74S
$$

TNZ083-085-099-260200-
SOUTHEAST TENNESSEE

CITY           SKY/WX    TMP DP  RH WIND       PRES   REMARKS
CHATTANOOGA    CLOUDY    51  39  63 S7        29.72F
$$

SKY/WX REPORTED AS FAIR MEANS FEW OR NO CLOUDS BELOW
12 THOUSAND FEET.




USA.gov is the U.S. government's official web portal to all federal, state and local government web resources and services.